FW9446 Weather Reports


Display with metric or nautical units.
time (UTC)temp
F
wind
direction
speed
MPH
gust
MPH
rain 1hr
in
rain 24hr
in
rain mn
in
humidity
%
barometer
mb
20260509205101 76 352 0.0 3.0 0.00 0.00 0.00 71 1011.3
20260509204604 75 0 0.0 4.0 0.00 0.00 0.00 69 1011.3
20260509204058 75 307 0.0 4.0 0.00 0.00 0.00 71 1011.2
20260509203557 75 0 0.0 3.0 0.00 0.00 0.00 71 1011.1
20260509203101 75 0 0.0 3.0 0.00 0.00 0.00 69 1010.8
20260509202558 75 0 0.0 3.0 0.00 0.00 0.00 72 1011.0
20260509202058 75 0 0.0 1.0 0.00 0.00 0.00 72 1010.8
20260509201601 75 0 0.0 3.0 0.00 0.00 0.00 72 1010.9
20260509201057 75 0 0.0 3.0 0.00 0.00 0.00 68 1010.9
20260509200557 75 0 0.0 1.0 0.00 0.00 0.00 71 1011.0
20260509200057 75 0 0.0 5.0 0.00 0.00 0.00 72 1010.9
20260509195558 75 0 0.0 5.0 0.00 0.00 0.00 68 1011.1
20260509195057 76 153 0.0 4.0 0.00 0.00 0.00 64 1011.2
20260509194558 76 0 0.0 4.0 0.00 0.00 0.00 68 1011.3
20260509194101 76 210 0.0 2.0 0.00 0.00 0.00 66 1011.3
20260509193557 75 322 0.0 6.0 0.00 0.00 0.00 70 1011.3
20260509193100 75 0 0.0 6.0 0.00 0.00 0.00 65 1011.4
20260509192557 75 174 0.0 5.0 0.00 0.00 0.00 67 1011.4
20260509192057 75 303 1.0 6.0 0.00 0.00 0.00 65 1011.5
20260509191609 75 0 1.0 6.0 0.00 0.00 0.00 65 1011.5
20260509191100 75 123 0.0 5.0 0.00 0.00 0.00 70 1011.5
20260509190557 75 130 1.0 5.0 0.00 0.00 0.00 65 1011.5
20260509190106 75 83 0.0 5.0 0.00 0.00 0.00 66 1011.6
20260509185558 75 0 1.0 5.0 0.00 0.00 0.00 63 1011.7
20260509185058 75 315 0.0 6.0 0.00 0.00 0.00 66 1011.8
20260509184558 75 0 2.0 6.0 0.00 0.00 0.00 63 1011.8
20260509184058 75 0 1.0 6.0 0.00 0.00 0.00 67 1011.9
20260509183557 75 80 0.0 8.0 0.00 0.00 0.00 67 1011.8
20260509183057 75 0 1.0 8.0 0.00 0.00 0.00 64 1011.7
20260509182559 75 352 2.0 8.0 0.00 0.00 0.00 62 1011.8
20260509182057 75 167 1.0 5.0 0.00 0.00 0.00 64 1011.9
20260509181604 75 0 0.0 8.0 0.00 0.00 0.00 65 1011.9
20260509181058 75 0 0.0 10.0 0.00 0.00 0.00 65 1011.8
20260509180558 75 209 3.0 10.0 0.00 0.00 0.00 65 1011.8
20260509180100 75 345 1.0 5.0 0.00 0.00 0.00 64 1011.7
20260509175558 74 0 0.0 3.0 0.00 0.00 0.00 69 1011.7
20260509175058 74 166 0.0 4.0 0.00 0.00 0.00 66 1011.6
20260509174604 74 0 0.0 4.0 0.00 0.00 0.00 69 1011.7
20260509174058 74 0 0.0 3.0 0.00 0.00 0.00 67 1011.5
20260509173557 74 0 0.0 3.0 0.00 0.00 0.00 66 1011.7
20260509173114 74 0 0.0 3.0 0.00 0.00 0.00 68 1012.0
20260509172557 73 146 0.0 3.0 0.00 0.00 0.00 68 1012.0
20260509172058 73 0 2.0 5.0 0.00 0.00 0.00 66 1012.2
20260509171604 73 0 0.0 8.0 0.00 0.00 0.00 68 1012.4
20260509171058 73 0 0.0 9.0 0.00 0.00 0.00 67 1012.4
20260509170600 73 190 3.0 9.0 0.00 0.00 0.00 65 1012.4
20260509170100 73 0 0.0 3.0 0.00 0.00 0.00 74 1012.5
20260509165557 72 321 0.0 4.0 0.00 0.00 0.00 71 1012.5
20260509165100 71 0 1.0 6.0 0.00 0.00 0.00 69 1012.5
20260509164557 71 0 0.0 6.0 0.00 0.00 0.00 70 1012.7
20260509164101 71 233 1.0 5.0 0.00 0.00 0.00 73 1012.6
20260509163600 71 250 1.0 5.0 0.00 0.00 0.00 71 1012.8
20260509163108 71 279 1.0 4.0 0.00 0.00 0.00 73 1012.8
20260509162558 71 0 0.0 5.0 0.00 0.00 0.00 74 1012.8
20260509162058 70 319 1.0 5.0 0.00 0.00 0.00 75 1012.8
20260509161606 69 0 0.0 5.0 0.00 0.00 0.00 74 1012.8
20260509161058 69 243 2.0 5.0 0.00 0.00 0.00 75 1012.7
20260509160557 69 240 0.0 4.0 0.00 0.00 0.00 78 1012.9
20260509160100 69 86 0.0 5.0 0.00 0.00 0.00 76 1013.0
20260509155558 69 115 1.0 5.0 0.00 0.00 0.00 75 1013.1
20260509155101 68 0 1.0 8.0 0.00 0.00 0.00 78 1013.1
20260509154607 67 0 0.0 8.0 0.00 0.00 0.00 78 1013.1
20260509154056 67 333 2.0 5.0 0.00 0.00 0.00 79 1013.2
20260509153602 67 0 1.0 6.0 0.00 0.00 0.00 79 1013.4
20260509153058 67 0 1.0 6.0 0.00 0.00 0.00 79 1013.4
20260509152600 66 157 0.0 4.0 0.00 0.00 0.00 81 1013.2
20260509152056 66 323 0.0 5.0 0.00 0.00 0.00 82 1013.3
20260509151602 66 146 0.0 5.0 0.00 0.00 0.00 83 1013.3
20260509151058 65 0 0.0 5.0 0.00 0.00 0.00 82 1013.3
20260509150557 65 316 0.0 3.0 0.00 0.00 0.00 86 1013.3
20260509150057 65 0 1.0 4.0 0.00 0.00 0.00 82 1013.2
20260509145558 64 0 1.0 4.0 0.00 0.00 0.00 84 1013.4
20260509145057 64 0 0.0 4.0 0.00 0.00 0.00 84 1013.3
20260509144611 64 0 1.0 7.0 0.00 0.00 0.00 83 1013.3
20260509144057 64 0 2.0 7.0 0.00 0.00 0.00 84 1013.4
20260509143557 64 0 0.0 5.0 0.00 0.00 0.00 84 1013.4
20260509143059 64 315 0.0 6.0 0.00 0.00 0.00 84 1013.5
20260509142611 64 251 0.0 6.0 0.00 0.00 0.00 85 1013.2
20260509142057 64 99 1.0 5.0 0.00 0.00 0.00 84 1012.9
20260509141559 63 0 0.0 4.0 0.00 0.00 0.00 85 1012.8
20260509141057 63 0 0.0 4.0 0.00 0.00 0.00 87 1012.6
20260509140556 63 151 0.0 4.0 0.00 0.00 0.00 86 1012.7
20260509140116 62 0 1.0 4.0 0.00 0.00 0.00 87 1012.6
20260509135601 62 0 0.0 2.0 0.00 0.00 0.00 88 1012.6
20260509135058 62 127 0.0 2.0 0.00 0.00 0.00 90 1012.5
20260509134558 61 0 0.0 1.0 0.00 0.00 0.00 90 1012.3
20260509134057 61 0 0.0 1.0 0.00 0.00 0.00 92 1012.5
20260509133558 60 0 0.0 1.0 0.00 0.00 0.00 92 1012.5
20260509133105 60 0 0.0 0.0 0.00 0.00 0.00 94 1012.5
20260509132558 60 0 0.0 1.0 0.00 0.00 0.00 94 1012.4
20260509132058 59 0 0.0 1.0 0.00 0.00 0.00 95 1012.5
20260509131602 59 0 0.0 1.0 0.00 0.00 0.00 95 1012.5
20260509131101 59 0 0.0 0.0 0.00 0.00 0.00 97 1012.6
20260509130557 58 0 0.0 0.0 0.00 0.00 0.00 97 1012.7
20260509130106 58 0 0.0 0.0 0.00 0.00 0.00 98 1012.8
20260509125556 57 0 0.0 0.0 0.00 0.00 0.00 98 1012.7
20260509125057 57 0 0.0 0.0 0.00 0.00 0.00 98 1012.8
20260509124606 57 0 0.0 0.0 0.00 0.00 0.00 98 1012.8
20260509124058 56 0 0.0 0.0 0.00 0.00 0.00 98 1012.8
20260509123557 56 0 0.0 0.0 0.00 0.00 0.00 98 1012.8
20260509123058 56 0 0.0 0.0 0.00 0.00 0.00 98 1012.8
20260509122556 55 0 0.0 0.0 0.00 0.00 0.00 98 1012.8
20260509122058 55 0 0.0 0.0 0.00 0.00 0.00 98 1012.7
20260509121609 55 0 0.0 0.0 0.00 0.00 0.00 98 1012.6
20260509121058 55 0 0.0 0.0 0.00 0.00 0.00 98 1012.5
20260509120558 55 0 0.0 0.0 0.00 0.00 0.00 98 1012.4
20260509120059 55 0 0.0 0.0 0.00 0.00 0.00 98 1012.5
20260509115557 54 0 0.0 0.0 0.00 0.00 0.00 98 1012.5
20260509115100 54 0 0.0 0.0 0.00 0.00 0.00 98 1012.5
20260509114559 54 0 0.0 0.0 0.00 0.00 0.00 98 1012.4
20260509114057 54 0 0.0 1.0 0.00 0.00 0.00 98 1012.4
20260509113559 54 0 0.0 1.0 0.00 0.00 0.00 98 1012.2
20260509113101 54 0 0.0 1.0 0.00 0.00 0.00 98 1012.4
20260509112601 54 0 0.0 0.0 0.00 0.00 0.00 98 1012.3
20260509112057 53 0 0.0 0.0 0.00 0.00 0.00 98 1012.2
20260509111607 53 0 0.0 0.0 0.00 0.00 0.00 98 1012.3
20260509111058 53 0 0.0 0.0 0.00 0.00 0.00 98 1012.2
20260509110557 53 0 0.0 0.0 0.00 0.00 0.00 98 1012.2
20260509110059 53 0 0.0 0.0 0.00 0.00 0.00 98 1012.1
20260509105556 53 0 0.0 0.0 0.00 0.00 0.00 98 1012.3
20260509105057 53 0 0.0 0.0 0.00 0.00 0.00 98 1012.2
20260509104559 53 0 0.0 0.0 0.00 0.00 0.00 98 1012.2
20260509104058 52 0 0.0 0.0 0.00 0.00 0.00 98 1012.2
20260509103559 52 0 0.0 0.0 0.00 0.00 0.00 98 1012.0
20260509103104 52 0 0.0 0.0 0.00 0.00 0.00 98 1012.1
20260509102559 52 0 0.0 0.0 0.00 0.00 0.00 98 1012.0
20260509102058 52 0 0.0 0.0 0.00 0.00 0.00 98 1012.0
20260509101600 52 0 0.0 0.0 0.00 0.00 0.00 98 1012.1
20260509101057 52 0 0.0 0.0 0.00 0.00 0.00 97 1012.1
20260509100557 52 0 0.0 0.0 0.00 0.00 0.00 97 1012.0
20260509100104 52 0 0.0 0.0 0.00 0.00 0.00 97 1012.1
20260509095600 52 0 0.0 0.0 0.00 0.00 0.00 97 1012.1
20260509095057 52 0 0.0 0.0 0.00 0.00 0.00 97 1012.0
20260509094559 52 0 0.0 0.0 0.00 0.00 0.00 97 1011.9
20260509094057 52 0 0.0 0.0 0.00 0.00 0.00 97 1011.9
20260509093557 52 0 0.0 0.0 0.00 0.00 0.00 97 1012.1
20260509093100 52 0 0.0 0.0 0.00 0.00 0.00 98 1012.1
20260509092556 52 0 0.0 0.0 0.00 0.00 0.00 98 1012.1
20260509092056 52 0 0.0 0.0 0.00 0.00 0.00 98 1012.0
20260509091558 51 0 0.0 0.0 0.00 0.00 0.00 98 1012.0
20260509091058 51 0 0.0 0.0 0.00 0.00 0.00 98 1012.3
20260509090557 51 0 0.0 0.0 0.00 0.00 0.00 98 1012.3
20260509090106 51 0 0.0 0.0 0.00 0.00 0.00 98 1012.6
20260509085557 51 0 0.0 0.0 0.00 0.00 0.00 98 1012.7
20260509085059 51 0 0.0 0.0 0.00 0.00 0.00 98 1012.9
20260509084603 51 0 0.0 0.0 0.00 0.00 0.00 98 1012.8
20260509084057 50 0 0.0 0.0 0.00 0.00 0.00 98 1012.8
20260509083556 50 0 0.0 0.0 0.00 0.00 0.00 98 1012.7
20260509083101 50 0 0.0 0.0 0.00 0.00 0.00 98 1012.6
20260509082556 50 0 0.0 0.0 0.00 0.00 0.00 98 1012.6
20260509082100 50 0 0.0 0.0 0.00 0.00 0.00 98 1012.7
20260509081558 49 0 0.0 0.0 0.00 0.00 0.00 97 1012.6
20260509081058 49 0 0.0 0.0 0.00 0.00 0.00 97 1012.4
20260509080557 49 0 0.0 0.0 0.00 0.00 0.00 97 1012.4
20260509075557 49 0 0.0 0.0 0.00 0.00 0.00 97 1012.4
20260509075059 49 0 0.0 0.0 0.00 0.00 0.00 97 1012.2
20260509074555 49 0 0.0 0.0 0.00 0.00 0.00 97 1012.2
20260509074058 48 0 0.0 0.0 0.00 0.00 0.00 96 1012.2
20260509073557 48 0 0.0 0.0 0.00 0.00 0.00 96 1012.2
20260509073058 49 0 0.0 0.0 0.00 0.00 0.00 96 1012.0
20260509072600 49 0 0.0 0.0 0.00 0.00 0.00 96 1012.0
20260509072057 49 0 0.0 0.0 0.00 0.00 0.00 96 1011.9
20260509071556 49 0 0.0 0.0 0.00 0.00 0.00 96 1011.9
20260509071057 49 0 0.0 0.0 0.00 0.00 0.00 96 1012.0
20260509070557 49 0 0.0 0.0 0.00 0.00 0.00 96 1012.2
20260509070057 49 0 0.0 0.0 0.00 0.00 0.00 96 1012.3
20260509065556 49 0 0.0 0.0 0.00 0.00 0.00 96 1012.4
20260509065056 49 0 0.0 0.0 0.00 0.00 0.00 96 1012.5
20260509064557 49 0 0.0 0.0 0.00 0.00 0.00 96 1012.4
20260509064058 49 0 0.0 0.0 0.00 0.00 0.00 96 1012.4
20260509063557 49 0 0.0 0.0 0.00 0.00 0.00 96 1012.4
20260509063104 49 0 0.0 0.0 0.00 0.00 0.00 96 1012.4
20260509062557 49 0 0.0 0.0 0.00 0.00 0.00 96 1012.5
20260509062057 49 0 0.0 0.0 0.00 0.00 0.00 96 1012.7
20260509061557 49 0 0.0 0.0 0.00 0.00 0.00 96 1012.6
20260509061057 49 0 0.0 0.0 0.00 0.00 0.00 96 1012.7
20260509060601 49 0 0.0 0.0 0.00 0.00 0.00 95 1013.0
20260509055556 49 0 0.0 0.0 0.00 0.00 0.00 95 1013.2
20260509055058 49 0 0.0 0.0 0.00 0.00 0.00 95 1013.3
20260509054612 49 0 0.0 0.0 0.00 0.00 0.00 95 1013.3
20260509054057 50 0 0.0 0.0 0.00 0.00 0.00 95 1013.4
20260509053601 50 0 0.0 0.0 0.00 0.00 0.00 95 1013.5
20260509053134 50 0 0.0 0.0 0.00 0.00 0.00 95 1013.5
20260509052559 50 0 0.0 0.0 0.00 0.00 0.00 95 1013.5
20260509052057 50 0 0.0 0.0 0.00 0.00 0.00 95 1013.4
20260509051559 50 0 0.0 0.0 0.00 0.00 0.00 95 1013.5
20260509051056 50 0 0.0 0.0 0.00 0.00 0.00 95 1013.5
20260509050558 50 0 0.0 0.0 0.00 0.00 0.00 94 1013.5
20260509050100 50 0 0.0 0.0 0.00 0.00 0.00 94 1013.3
20260509045557 50 0 0.0 0.0 0.00 0.00 0.00 94 1013.5
20260509045059 51 0 0.0 0.0 0.00 0.00 0.00 94 1013.5
20260509044601 51 0 0.0 0.0 0.00 0.00 0.00 94 1013.4
20260509044100 51 0 0.0 0.0 0.00 0.00 0.00 94 1013.5
20260509043558 51 0 0.0 0.0 0.00 0.00 0.00 93 1013.7
20260509043107 51 0 0.0 0.0 0.00 0.00 0.00 93 1013.7
20260509042601 51 0 0.0 0.0 0.00 0.00 0.00 93 1013.7
20260509042057 51 0 0.0 0.0 0.00 0.00 0.00 93 1013.9
20260509041605 52 0 0.0 0.0 0.00 0.00 0.00 93 1013.9
20260509041101 52 0 0.0 0.0 0.00 0.00 0.00 93 1013.8
20260509040559 52 0 0.0 0.0 0.00 0.00 0.00 93 1013.9
20260509040125 52 0 0.0 0.0 0.00 0.00 0.00 93 1013.9
20260509035601 52 0 0.0 0.0 0.00 0.00 0.00 92 1013.9
20260509035057 53 0 0.0 0.0 0.00 0.00 0.00 92 1014.0
20260509034607 53 0 0.0 0.0 0.00 0.00 0.00 92 1013.8
20260509034057 53 0 0.0 0.0 0.00 0.00 0.00 92 1013.9
20260509033557 53 0 0.0 0.0 0.00 0.00 0.00 92 1013.8
20260509033059 53 0 0.0 0.0 0.00 0.00 0.00 91 1013.9
20260509032557 53 0 0.0 0.0 0.00 0.00 0.00 91 1013.9
20260509032057 54 0 0.0 0.0 0.00 0.00 0.00 91 1013.9
20260509031606 54 0 0.0 0.0 0.00 0.00 0.00 90 1014.0
20260509031057 54 0 0.0 0.0 0.00 0.00 0.00 90 1014.0
20260509030559 54 0 0.0 0.0 0.00 0.00 0.00 90 1014.1
20260509030100 54 0 0.0 0.0 0.00 0.00 0.00 89 1014.2
20260509025557 55 0 0.0 0.0 0.00 0.00 0.00 89 1014.3
20260509025100 55 0 0.0 0.0 0.00 0.00 0.00 89 1014.3
20260509024600 55 0 0.0 0.0 0.00 0.00 0.00 89 1014.2
20260509024101 55 0 0.0 0.0 0.00 0.00 0.00 89 1014.3
20260509023600 55 0 0.0 0.0 0.00 0.00 0.00 88 1014.4
20260509023057 55 0 0.0 0.0 0.00 0.00 0.00 88 1014.1
20260509022604 55 0 0.0 0.0 0.00 0.00 0.00 88 1014.0
20260509022100 55 0 0.0 0.0 0.00 0.00 0.00 87 1014.1
20260509021559 56 0 0.0 0.0 0.00 0.00 0.00 87 1013.9
20260509021058 56 0 0.0 0.0 0.00 0.00 0.00 87 1013.9
20260509020557 56 0 0.0 0.0 0.00 0.00 0.00 86 1013.9
20260509020100 56 0 0.0 0.0 0.00 0.00 0.00 86 1014.0
20260509015557 56 0 0.0 0.0 0.00 0.00 0.00 85 1013.9
20260509015057 57 0 0.0 0.0 0.00 0.00 0.00 85 1013.9
20260509014603 57 0 0.0 0.0 0.00 0.00 0.00 84 1013.9
20260509014057 57 0 0.0 0.0 0.00 0.00 0.00 83 1013.8
20260509013600 58 0 0.0 0.0 0.00 0.00 0.00 83 1013.8
20260509013109 58 0 0.0 0.0 0.00 0.00 0.00 82 1013.8
20260509012557 58 0 0.0 0.0 0.00 0.00 0.00 82 1013.7
20260509012104 59 0 0.0 0.0 0.00 0.00 0.00 81 1013.8
20260509011601 59 0 0.0 0.0 0.00 0.00 0.00 81 1013.8
20260509011103 59 0 0.0 0.0 0.00 0.00 0.00 80 1013.8
20260509010600 59 0 0.0 0.0 0.00 0.00 0.00 79 1013.8
20260509010059 60 0 0.0 0.0 0.00 0.00 0.00 77 1014.0
20260509005559 60 0 0.0 0.0 0.00 0.00 0.00 77 1014.0
20260509005059 61 0 0.0 0.0 0.00 0.00 0.00 76 1013.9
20260509004602 61 0 0.0 0.0 0.00 0.00 0.00 75 1013.8
20260509004100 62 0 0.0 0.0 0.00 0.00 0.00 76 1014.0
20260509003557 62 0 0.0 0.0 0.00 0.00 0.00 73 1014.0
20260509003100 62 0 0.0 0.0 0.00 0.00 0.00 73 1013.9
20260509002559 63 0 0.0 0.0 0.00 0.00 0.00 74 1013.8
20260509002057 63 0 0.0 0.0 0.00 0.00 0.00 71 1014.0
20260509001557 64 0 0.0 0.0 0.00 0.00 0.00 72 1013.9
20260509001057 64 0 0.0 0.0 0.00 0.00 0.00 71 1014.0
20260509000556 65 0 0.0 0.0 0.00 0.00 0.00 70 1013.8
20260509000101 65 0 0.0 0.0 0.00 0.00 0.00 70 1013.8
20260508235601 65 0 0.0 0.0 0.00 0.00 0.00 69 1013.9
20260508235102 65 0 0.0 0.0 0.00 0.00 0.00 68 1013.8
20260508234600 66 0 0.0 0.0 0.00 0.00 0.00 68 1013.7
20260508234100 66 0 0.0 0.0 0.00 0.00 0.00 68 1013.6
20260508233600 66 0 0.0 0.0 0.00 0.00 0.00 67 1013.7
20260508233111 66 0 0.0 1.0 0.00 0.00 0.00 66 1013.6
20260508232600 66 0 0.0 1.0 0.00 0.00 0.00 65 1013.7
20260508232103 67 0 0.0 2.0 0.00 0.00 0.00 63 1013.6
20260508231600 67 0 0.0 2.0 0.00 0.00 0.00 62 1013.7
20260508231100 67 231 0.0 3.0 0.00 0.00 0.00 62 1013.6
20260508230600 68 0 0.0 3.0 0.00 0.00 0.00 62 1013.8
20260508230105 68 227 0.0 1.0 0.00 0.00 0.00 59 1013.9
20260508225557 68 0 0.0 2.0 0.00 0.00 0.00 63 1013.9
20260508225057 68 0 0.0 2.0 0.00 0.00 0.00 59 1013.9
20260508224557 68 0 0.0 3.0 0.00 0.00 0.00 59 1013.9
20260508224059 68 0 0.0 4.0 0.00 0.00 0.00 59 1014.0
20260508223557 68 0 1.0 4.0 0.00 0.00 0.00 57 1013.9
20260508223058 68 0 0.0 4.0 0.00 0.00 0.00 60 1014.1
20260508222558 69 0 0.0 3.0 0.00 0.00 0.00 59 1014.1
20260508222057 69 146 0.0 3.0 0.00 0.00 0.00 63 1014.1
20260508221558 69 182 0.0 4.0 0.00 0.00 0.00 63 1014.1
20260508221057 69 202 0.0 4.0 0.00 0.00 0.00 63 1014.1
20260508220557 70 0 0.0 4.0 0.00 0.00 0.00 55 1014.0
20260508220059 70 0 0.0 5.0 0.00 0.00 0.00 54 1013.9
20260508215556 70 211 1.0 5.0 0.00 0.00 0.00 53 1013.9
20260508215056 71 0 0.0 1.0 0.00 0.00 0.00 59 1013.8
20260508214606 71 0 0.0 1.0 0.00 0.00 0.00 54 1013.9
20260508214057 71 0 0.0 4.0 0.00 0.00 0.00 58 1013.7
20260508213556 71 0 0.0 4.0 0.00 0.00 0.00 52 1013.7
20260508213057 71 0 0.0 1.0 0.00 0.00 0.00 57 1013.6
20260508212556 71 0 0.0 3.0 0.00 0.00 0.00 60 1013.5
20260508212056 71 0 0.0 3.0 0.00 0.00 0.00 57 1013.6
20260508211559 71 0 0.0 3.0 0.00 0.00 0.00 51 1013.7
20260508211056 71 305 0.0 4.0 0.00 0.00 0.00 49 1013.8
20260508210559 72 0 0.0 4.0 0.00 0.00 0.00 45 1014.0
20260508210108 72 268 0.0 3.0 0.00 0.00 0.00 47 1014.0
20260508205556 72 238 0.0 4.0 0.00 0.00 0.00 46 1014.0